Time,TemperatureF,DewpointF,PressureIn,WindDirection,WindDirectionDegrees,WindSpeedMPH,WindSpeedGustMPH,Humidity,HourlyPrecipIn,Conditions,Clouds,dailyrainin,SoftwareType,DateUTC
2013-07-25 00:01:00,59.2,58.9,29.90,East,90,0.0,0.7,99,0.00,,,0.00,pywws,2013-07-24 23:01:00,
2013-07-25 00:03:00,58.8,58.5,29.90,East,90,0.0,0.7,99,0.00,,,0.00,pywws,2013-07-24 23:03:00,
2013-07-25 00:08:00,58.6,58.4,29.90,East,90,0.0,0.7,99,0.00,,,0.00,pywws,2013-07-24 23:08:00,
2013-07-25 00:13:00,58.5,58.2,29.90,ENE,68,0.0,0.7,99,0.00,,,0.00,pywws,2013-07-24 23:13:00,
2013-07-25 00:18:00,58.6,58.4,29.90,West,270,0.0,1.6,99,0.00,,,0.00,pywws,2013-07-24 23:18:00,
2013-07-25 00:23:00,59.4,59.1,29.90,NE,45,0.7,3.1,99,0.00,,,0.00,pywws,2013-07-24 23:23:00,
2013-07-25 00:28:00,59.7,59.4,29.90,North,0,0.0,0.7,99,0.00,,,0.00,pywws,2013-07-24 23:28:00,
2013-07-25 00:33:00,59.5,59.3,29.90,North,0,0.0,0.0,99,0.00,,,0.00,pywws,2013-07-24 23:33:00,
2013-07-25 00:38:00,59.5,59.3,29.89,North,0,0.0,0.0,99,0.00,,,0.00,pywws,2013-07-24 23:38:00,
2013-07-25 00:43:00,59.2,58.9,29.90,North,0,0.0,0.0,99,0.00,,,0.00,pywws,2013-07-24 23:43:00,
2013-07-25 00:48:00,59.0,58.7,29.90,North,0,0.0,0.0,99,0.00,,,0.00,pywws,2013-07-24 23:48:00,
2013-07-25 01:01:00,58.8,58.5,29.90,North,0,0.0,0.0,99,0.00,,,0.00,pywws,2013-07-25 00:01:00,
2013-07-25 01:03:00,59.2,58.9,29.90,North,0,0.0,0.7,99,0.00,,,0.00,pywws,2013-07-25 00:03:00,
2013-07-25 01:08:00,59.5,59.3,29.89,NE,45,0.0,0.7,99,0.00,,,0.00,pywws,2013-07-25 00:08:00,
2013-07-25 01:13:00,59.5,59.3,29.89,NE,45,0.0,1.6,99,0.00,,,0.00,pywws,2013-07-25 00:13:00,
2013-07-25 01:18:00,59.7,59.4,29.89,NE,45,0.0,0.0,99,0.00,,,0.00,pywws,2013-07-25 00:18:00,
2013-07-25 01:23:00,59.7,59.4,29.89,NE,45,0.0,1.6,99,0.00,,,0.00,pywws,2013-07-25 00:23:00,
2013-07-25 01:28:00,59.7,59.4,29.89,NE,45,0.0,0.0,99,0.00,,,0.00,pywws,2013-07-25 00:28:00,
2013-07-25 01:33:00,59.7,59.4,29.89,NE,45,0.0,0.0,99,0.00,,,0.00,pywws,2013-07-25 00:33:00,
2013-07-25 01:38:00,59.7,59.4,29.89,NE,45,0.0,0.0,99,0.00,,,0.00,pywws,2013-07-25 00:38:00,
2013-07-25 01:44:00,59.9,59.6,29.89,South,180,0.0,0.7,99,0.00,,,0.00,pywws,2013-07-25 00:44:00,
2013-07-25 01:49:00,60.1,59.8,29.89,SE,135,0.7,3.1,99,0.00,,,0.00,pywws,2013-07-25 00:49:00,
2013-07-25 02:00:00,60.6,60.3,29.89,South,180,0.7,2.2,99,0.00,,,0.00,pywws,2013-07-25 01:00:00,
2013-07-25 02:05:00,61.2,60.9,29.88,SE,135,0.7,2.2,99,0.00,,,0.00,pywws,2013-07-25 01:05:00,
2013-07-25 02:10:00,61.2,60.9,29.88,SE,135,0.0,0.7,99,0.00,,,0.00,pywws,2013-07-25 01:10:00,
2013-07-25 02:16:00,61.2,60.9,29.89,SE,135,0.0,0.7,99,0.00,,,0.00,pywws,2013-07-25 01:16:00,
2013-07-25 02:21:00,61.0,60.7,29.89,SE,135,0.0,0.0,99,0.00,,,0.00,pywws,2013-07-25 01:21:00,
2013-07-25 02:26:00,61.0,60.7,29.88,SE,135,0.7,1.6,99,0.00,,,0.00,pywws,2013-07-25 01:26:00,
2013-07-25 02:32:00,61.0,60.7,29.88,East,90,0.7,1.6,99,0.00,,,0.00,pywws,2013-07-25 01:32:00,
2013-07-25 02:37:00,61.0,60.7,29.89,East,90,0.0,0.0,99,0.00,,,0.00,pywws,2013-07-25 01:37:00,
2013-07-25 02:42:00,60.8,60.5,29.89,East,90,0.0,0.0,99,0.00,,,0.00,pywws,2013-07-25 01:42:00,
2013-07-25 02:48:00,60.8,60.5,29.89,SE,135,0.0,0.0,99,0.00,,,0.00,pywws,2013-07-25 01:48:00,
2013-07-25 03:01:00,60.6,60.3,29.88,SE,135,0.0,0.0,99,0.00,,,0.00,pywws,2013-07-25 02:01:00,
2013-07-25 03:04:00,60.6,60.3,29.88,SE,135,0.0,0.0,99,0.00,,,0.00,pywws,2013-07-25 02:04:00,
2013-07-25 03:09:00,60.6,60.3,29.88,SE,135,0.7,2.2,99,0.00,,,0.00,pywws,2013-07-25 02:09:00,
2013-07-25 03:14:00,60.8,60.5,29.88,SE,135,0.0,1.6,99,0.00,,,0.00,pywws,2013-07-25 02:14:00,
2013-07-25 03:20:00,60.8,60.5,29.88,SE,135,1.6,3.8,99,0.00,,,0.00,pywws,2013-07-25 02:20:00,
2013-07-25 03:25:00,60.8,60.5,29.87,SE,135,0.7,3.8,99,0.00,,,0.00,pywws,2013-07-25 02:25:00,
2013-07-25 03:30:00,60.8,60.5,29.87,East,90,0.7,1.6,99,0.00,,,0.00,pywws,2013-07-25 02:30:00,
2013-07-25 03:36:00,60.6,60.3,29.87,SE,135,0.7,2.2,99,0.00,,,0.00,pywws,2013-07-25 02:36:00,
2013-07-25 03:41:00,60.6,60.3,29.88,East,90,0.0,0.7,99,0.00,,,0.00,pywws,2013-07-25 02:41:00,
2013-07-25 03:46:00,60.4,60.2,29.88,East,90,0.0,0.0,99,0.00,,,0.00,pywws,2013-07-25 02:46:00,
2013-07-25 04:01:00,60.4,60.2,29.88,SE,135,0.0,0.7,99,0.00,,,0.00,pywws,2013-07-25 03:01:00,
2013-07-25 04:02:00,60.4,60.2,29.87,ESE,112,1.6,3.1,99,0.00,,,0.00,pywws,2013-07-25 03:02:00,
2013-07-25 04:08:00,60.3,60.0,29.87,SE,135,0.7,2.2,99,0.00,,,0.00,pywws,2013-07-25 03:08:00,
2013-07-25 04:13:00,60.3,60.0,29.87,SE,135,0.7,3.1,99,0.00,,,0.00,pywws,2013-07-25 03:13:00,
2013-07-25 04:18:00,60.1,59.8,29.87,South,180,1.6,3.8,99,0.00,,,0.00,pywws,2013-07-25 03:18:00,
2013-07-25 04:24:00,60.1,59.8,29.87,SE,135,0.7,1.6,99,0.00,,,0.00,pywws,2013-07-25 03:24:00,
2013-07-25 04:29:00,59.9,59.6,29.87,NE,45,1.6,4.5,99,0.00,,,0.00,pywws,2013-07-25 03:29:00,
2013-07-25 04:34:00,59.9,59.6,29.88,ENE,68,0.7,3.1,99,0.00,,,0.00,pywws,2013-07-25 03:34:00,
2013-07-25 04:40:00,59.5,59.3,29.87,West,270,0.7,1.6,99,0.00,,,0.00,pywws,2013-07-25 03:40:00,
2013-07-25 04:45:00,59.4,59.1,29.87,SE,135,0.7,1.6,99,0.00,,,0.00,pywws,2013-07-25 03:45:00,
2013-07-25 04:50:00,59.4,59.1,29.87,SE,135,0.0,2.2,99,0.00,,,0.00,pywws,2013-07-25 03:50:00,
2013-07-25 05:01:00,59.4,59.1,29.88,East,90,0.0,1.6,99,0.00,,,0.00,pywws,2013-07-25 04:01:00,
2013-07-25 05:06:00,59.4,59.1,29.88,South,180,0.0,1.6,99,0.00,,,0.00,pywws,2013-07-25 04:06:00,
2013-07-25 05:12:00,59.4,59.1,29.88,South,180,0.0,1.6,99,0.00,,,0.00,pywws,2013-07-25 04:12:00,
2013-07-25 05:17:00,59.4,59.1,29.88,SE,135,0.0,1.6,99,0.00,,,0.00,pywws,2013-07-25 04:17:00,
2013-07-25 05:22:00,59.4,59.1,29.87,SE,135,0.7,1.6,99,0.00,,,0.00,pywws,2013-07-25 04:22:00,
2013-07-25 05:28:00,59.4,59.1,29.87,East,90,0.7,2.2,99,0.00,,,0.00,pywws,2013-07-25 04:28:00,
2013-07-25 05:33:00,59.5,59.3,29.86,SE,135,3.1,5.4,99,0.00,,,0.00,pywws,2013-07-25 04:33:00,
2013-07-25 05:38:00,59.4,59.1,29.86,East,90,0.7,1.6,99,0.00,,,0.00,pywws,2013-07-25 04:38:00,
2013-07-25 05:44:00,59.5,59.3,29.87,South,180,0.0,1.6,99,0.00,,,0.00,pywws,2013-07-25 04:44:00,
2013-07-25 05:49:00,59.5,59.3,29.87,SE,135,0.0,1.6,99,0.00,,,0.00,pywws,2013-07-25 04:49:00,
2013-07-25 06:00:00,59.5,59.3,29.87,East,90,0.0,1.6,99,0.00,,,0.00,pywws,2013-07-25 05:00:00,
2013-07-25 06:05:00,59.7,59.4,29.86,SE,135,0.7,1.6,99,0.00,,,0.00,pywws,2013-07-25 05:05:00,
2013-07-25 06:10:00,59.7,59.4,29.86,East,90,0.0,0.7,99,0.00,,,0.00,pywws,2013-07-25 05:10:00,
2013-07-25 06:16:00,59.7,59.4,29.86,SE,135,0.7,1.6,99,0.00,,,0.00,pywws,2013-07-25 05:16:00,
2013-07-25 06:21:00,59.5,59.3,29.86,SE,135,0.7,2.2,99,0.00,,,0.00,pywws,2013-07-25 05:21:00,
2013-07-25 06:26:00,59.5,59.3,29.85,SE,135,0.7,2.2,99,0.00,,,0.00,pywws,2013-07-25 05:26:00,
2013-07-25 06:32:00,59.5,59.3,29.85,East,90,0.7,2.2,99,0.00,,,0.00,pywws,2013-07-25 05:32:00,
2013-07-25 06:37:00,59.7,59.4,29.85,East,90,0.0,2.2,99,0.00,,,0.00,pywws,2013-07-25 05:37:00,
2013-07-25 06:42:00,59.7,59.4,29.85,South,180,0.0,2.2,99,0.00,,,0.00,pywws,2013-07-25 05:42:00,
2013-07-25 06:48:00,59.7,59.4,29.86,South,180,2.2,3.8,99,0.00,,,0.00,pywws,2013-07-25 05:48:00,
2013-07-25 07:01:00,59.5,59.3,29.86,East,90,0.0,1.6,99,0.00,,,0.00,pywws,2013-07-25 06:01:00,
2013-07-25 07:04:00,59.5,59.3,29.85,SE,135,0.0,1.6,99,0.00,,,0.00,pywws,2013-07-25 06:04:00,
2013-07-25 07:09:00,59.5,59.3,29.86,NE,45,0.0,1.6,99,0.00,,,0.00,pywws,2013-07-25 06:09:00,
2013-07-25 07:14:00,59.5,59.3,29.86,SE,135,0.7,2.2,99,0.00,,,0.00,pywws,2013-07-25 06:14:00,
2013-07-25 07:20:00,59.5,59.3,29.86,East,90,1.6,2.2,99,0.00,,,0.00,pywws,2013-07-25 06:20:00,
2013-07-25 07:25:00,59.5,59.3,29.86,SE,135,0.7,3.1,99,0.00,,,0.00,pywws,2013-07-25 06:25:00,
2013-07-25 07:30:00,59.5,59.3,29.86,South,180,0.0,0.7,99,0.00,,,0.00,pywws,2013-07-25 06:30:00,
2013-07-25 07:36:00,59.5,59.3,29.86,East,90,0.7,3.1,99,0.00,,,0.00,pywws,2013-07-25 06:36:00,
2013-07-25 07:41:00,59.5,59.3,29.86,NE,45,0.7,2.2,99,0.00,,,0.00,pywws,2013-07-25 06:41:00,
2013-07-25 07:46:00,59.5,59.3,29.86,SE,135,0.7,2.2,99,0.00,,,0.00,pywws,2013-07-25 06:46:00,
2013-07-25 08:01:00,59.5,59.3,29.86,NE,45,0.0,1.6,99,0.00,,,0.00,pywws,2013-07-25 07:01:00,
2013-07-25 08:02:00,59.7,59.4,29.86,SE,135,0.0,1.6,99,0.00,,,0.00,pywws,2013-07-25 07:02:00,
2013-07-25 08:08:00,59.9,59.6,29.86,SE,135,0.0,1.6,99,0.00,,,0.00,pywws,2013-07-25 07:08:00,
2013-07-25 08:13:00,59.9,59.6,29.85,SE,135,0.0,1.6,99,0.00,,,0.00,pywws,2013-07-25 07:13:00,
2013-07-25 08:18:00,59.9,59.6,29.86,NE,45,0.0,1.6,99,0.00,,,0.00,pywws,2013-07-25 07:18:00,
2013-07-25 08:24:00,59.9,59.6,29.86,SE,135,0.7,1.6,99,0.00,,,0.00,pywws,2013-07-25 07:24:00,
2013-07-25 08:29:00,59.9,59.6,29.86,East,90,0.7,1.6,99,0.00,,,0.00,pywws,2013-07-25 07:29:00,
2013-07-25 08:34:00,59.9,59.6,29.86,South,180,0.0,0.7,99,0.00,,,0.00,pywws,2013-07-25 07:34:00,
2013-07-25 08:40:00,60.1,59.8,29.86,East,90,0.0,0.7,99,0.00,,,0.00,pywws,2013-07-25 07:40:00,
2013-07-25 08:45:00,60.1,59.8,29.86,North,0,0.0,0.0,99,0.00,,,0.00,pywws,2013-07-25 07:45:00,
2013-07-25 08:50:00,60.1,59.8,29.86,South,180,0.0,0.7,99,0.00,,,0.00,pywws,2013-07-25 07:50:00,
2013-07-25 09:01:00,60.1,59.8,29.85,SE,135,0.7,1.6,99,0.00,,,0.00,pywws,2013-07-25 08:01:00,
2013-07-25 09:06:00,60.1,59.8,29.85,SE,135,0.7,1.6,99,0.00,,,0.00,pywws,2013-07-25 08:06:00,
2013-07-25 09:12:00,60.3,60.0,29.85,SE,135,0.7,3.1,99,0.00,,,0.00,pywws,2013-07-25 08:12:00,
2013-07-25 09:17:00,60.3,60.0,29.85,SE,135,0.7,2.2,99,0.00,,,0.00,pywws,2013-07-25 08:17:00,
2013-07-25 09:22:00,60.1,59.8,29.85,SE,135,1.6,3.8,99,0.00,,,0.00,pywws,2013-07-25 08:22:00,
2013-07-25 09:28:00,60.1,59.8,29.85,East,90,0.7,2.2,99,0.00,,,0.00,pywws,2013-07-25 08:28:00,
2013-07-25 09:33:00,60.1,59.8,29.85,SE,135,0.0,1.6,99,0.00,,,0.00,pywws,2013-07-25 08:33:00,
2013-07-25 09:38:00,60.3,60.0,29.85,East,90,0.7,1.6,99,0.00,,,0.00,pywws,2013-07-25 08:38:00,
2013-07-25 09:44:00,60.4,60.2,29.85,SE,135,1.6,2.2,99,0.00,,,0.00,pywws,2013-07-25 08:44:00,
2013-07-25 09:49:00,60.6,60.3,29.84,South,180,0.7,3.1,99,0.00,,,0.00,pywws,2013-07-25 08:49:00,
2013-07-25 10:00:00,60.8,60.5,29.84,NE,45,0.7,3.1,99,0.00,,,0.00,pywws,2013-07-25 09:00:00,
2013-07-25 10:05:00,61.3,61.1,29.84,SE,135,1.6,3.8,99,0.00,,,0.00,pywws,2013-07-25 09:05:00,
2013-07-25 10:10:00,61.3,61.1,29.85,NE,45,0.7,1.6,99,0.00,,,0.00,pywws,2013-07-25 09:10:00,
2013-07-25 10:16:00,61.9,61.6,29.85,SE,135,0.7,2.2,99,0.00,,,0.00,pywws,2013-07-25 09:16:00,
2013-07-25 10:21:00,62.1,61.8,29.85,South,180,0.7,3.1,99,0.00,,,0.00,pywws,2013-07-25 09:21:00,
2013-07-25 10:26:00,61.7,61.4,29.85,SE,135,1.6,3.8,99,0.00,,,0.00,pywws,2013-07-25 09:26:00,
2013-07-25 10:32:00,61.5,61.2,29.85,East,90,0.7,1.6,99,0.00,,,0.00,pywws,2013-07-25 09:32:00,
2013-07-25 10:37:00,61.5,61.2,29.84,East,90,0.7,2.2,99,0.00,,,0.00,pywws,2013-07-25 09:37:00,
2013-07-25 10:42:00,61.3,61.1,29.84,East,90,0.7,3.1,99,0.00,,,0.00,pywws,2013-07-25 09:42:00,
2013-07-25 10:48:00,61.2,60.9,29.84,NE,45,0.0,1.6,99,0.00,,,0.00,pywws,2013-07-25 09:48:00,
2013-07-25 11:01:00,61.2,60.9,29.84,ESE,112,3.1,4.5,99,0.00,,,0.00,pywws,2013-07-25 10:01:00,
2013-07-25 11:04:00,60.8,60.5,29.84,East,90,0.0,2.2,99,0.00,,,0.00,pywws,2013-07-25 10:04:00,
2013-07-25 11:09:00,61.0,60.7,29.84,SE,135,0.7,2.2,99,0.00,,,0.00,pywws,2013-07-25 10:09:00,
2013-07-25 11:14:00,61.0,60.7,29.84,East,90,0.7,2.2,99,0.00,,,0.00,pywws,2013-07-25 10:14:00,
2013-07-25 11:20:00,61.0,60.7,29.84,East,90,0.7,1.6,99,0.00,,,0.00,pywws,2013-07-25 10:20:00,
2013-07-25 11:25:00,61.0,60.7,29.84,East,90,1.6,3.1,99,0.00,,,0.00,pywws,2013-07-25 10:25:00,
2013-07-25 11:30:00,61.0,60.7,29.84,East,90,0.7,2.2,99,0.00,,,0.00,pywws,2013-07-25 10:30:00,
2013-07-25 11:36:00,60.8,60.5,29.84,East,90,1.6,2.2,99,0.00,,,0.00,pywws,2013-07-25 10:36:00,
2013-07-25 11:41:00,60.8,60.5,29.84,East,90,0.7,2.2,99,0.00,,,0.00,pywws,2013-07-25 10:41:00,
2013-07-25 11:46:00,60.8,60.5,29.84,SSE,158,0.7,1.6,99,0.00,,,0.00,pywws,2013-07-25 10:46:00,
2013-07-25 12:01:00,60.8,60.5,29.83,East,90,0.7,2.2,99,0.00,,,0.00,pywws,2013-07-25 11:01:00,
2013-07-25 12:02:00,61.0,60.7,29.83,East,90,0.0,1.6,99,0.00,,,0.00,pywws,2013-07-25 11:02:00,
2013-07-25 12:08:00,61.0,60.7,29.83,NW,315,0.0,0.7,99,0.00,,,0.00,pywws,2013-07-25 11:08:00,
2013-07-25 12:13:00,61.2,60.9,29.83,NE,45,0.0,0.7,99,0.00,,,0.00,pywws,2013-07-25 11:13:00,
2013-07-25 12:18:00,61.2,60.9,29.83,NE,45,0.0,0.0,99,0.00,,,0.00,pywws,2013-07-25 11:18:00,
2013-07-25 12:24:00,61.3,61.1,29.83,SE,135,0.7,1.6,99,0.00,,,0.00,pywws,2013-07-25 11:24:00,
2013-07-25 12:29:00,61.3,61.1,29.83,SSE,158,1.6,3.1,99,0.00,,,0.00,pywws,2013-07-25 11:29:00,
2013-07-25 12:34:00,61.5,61.2,29.83,West,270,0.7,3.1,99,0.00,,,0.00,pywws,2013-07-25 11:34:00,
2013-07-25 12:40:00,61.5,61.2,29.83,NE,45,0.0,2.2,99,0.00,,,0.00,pywws,2013-07-25 11:40:00,
2013-07-25 12:45:00,61.7,61.4,29.83,South,180,0.0,3.1,99,0.00,,,0.00,pywws,2013-07-25 11:45:00,
2013-07-25 12:50:00,61.9,61.6,29.83,SE,135,1.6,4.5,99,0.00,,,0.00,pywws,2013-07-25 11:50:00,
2013-07-25 13:01:00,62.2,62.0,29.83,SSE,158,1.6,3.1,99,0.00,,,0.00,pywws,2013-07-25 12:01:00,
2013-07-25 13:06:00,62.4,62.1,29.82,WSW,248,0.7,2.2,99,0.00,,,0.00,pywws,2013-07-25 12:06:00,
2013-07-25 13:12:00,62.4,62.1,29.83,East,90,1.6,3.1,99,0.00,,,0.00,pywws,2013-07-25 12:12:00,
2013-07-25 13:17:00,62.6,62.3,29.83,East,90,1.6,3.1,99,0.00,,,0.00,pywws,2013-07-25 12:17:00,
2013-07-25 13:22:00,63.0,62.7,29.83,SE,135,1.6,3.1,99,0.00,,,0.00,pywws,2013-07-25 12:22:00,
2013-07-25 13:28:00,62.8,62.5,29.83,SE,135,1.6,2.2,99,0.00,,,0.00,pywws,2013-07-25 12:28:00,
2013-07-25 13:33:00,62.8,62.5,29.83,SW,225,3.1,4.5,99,0.00,,,0.00,pywws,2013-07-25 12:33:00,
2013-07-25 13:38:00,62.8,62.5,29.83,SE,135,1.6,4.5,99,0.00,,,0.00,pywws,2013-07-25 12:38:00,
2013-07-25 13:44:00,64.0,63.8,29.82,South,180,2.2,4.5,99,0.00,,,0.00,pywws,2013-07-25 12:44:00,
2013-07-25 13:49:00,64.0,63.8,29.83,East,90,3.1,4.5,99,0.00,,,0.00,pywws,2013-07-25 12:49:00,
2013-07-25 14:00:00,63.9,63.6,29.82,East,90,1.6,3.1,99,0.00,,,0.00,pywws,2013-07-25 13:00:00,
2013-07-25 14:05:00,64.0,63.8,29.82,SE,135,2.2,6.9,99,0.00,,,0.00,pywws,2013-07-25 13:05:00,
2013-07-25 14:10:00,64.2,63.9,29.83,SE,135,1.6,3.1,99,0.00,,,0.00,pywws,2013-07-25 13:10:00,
2013-07-25 14:16:00,64.4,64.1,29.82,SE,135,1.6,3.1,99,0.00,,,0.00,pywws,2013-07-25 13:16:00,
2013-07-25 14:21:00,64.4,64.1,29.82,NE,45,1.6,4.5,99,0.00,,,0.00,pywws,2013-07-25 13:21:00,
2013-07-25 14:26:00,64.4,64.1,29.82,East,90,0.7,2.2,99,0.00,,,0.00,pywws,2013-07-25 13:26:00,
2013-07-25 14:32:00,64.9,64.7,29.83,SSW,202,0.7,2.2,99,0.00,,,0.00,pywws,2013-07-25 13:32:00,
2013-07-25 14:37:00,65.3,65.0,29.82,SE,135,0.7,2.2,99,0.00,,,0.00,pywws,2013-07-25 13:37:00,
2013-07-25 14:42:00,65.1,64.8,29.82,SE,135,1.6,2.2,99,0.00,,,0.00,pywws,2013-07-25 13:42:00,
2013-07-25 14:48:00,65.3,65.0,29.82,SE,135,1.6,3.8,99,0.00,,,0.00,pywws,2013-07-25 13:48:00,
2013-07-25 15:01:00,65.3,65.0,29.82,SW,225,1.6,3.8,99,0.00,,,0.00,pywws,2013-07-25 14:01:00,
2013-07-25 15:04:00,67.3,67.0,29.81,SSW,202,1.6,3.8,99,0.00,,,0.00,pywws,2013-07-25 14:04:00,
2013-07-25 15:09:00,66.6,66.3,29.81,SE,135,2.2,3.8,99,0.00,,,0.00,pywws,2013-07-25 14:09:00,
2013-07-25 15:14:00,66.6,66.3,29.82,NE,45,3.1,4.5,99,0.00,,,0.00,pywws,2013-07-25 14:14:00,
2013-07-25 15:20:00,67.3,67.0,29.80,North,0,0.7,2.2,99,0.00,,,0.00,pywws,2013-07-25 14:20:00,
2013-07-25 15:25:00,67.8,67.5,29.80,SE,135,3.1,5.4,99,0.00,,,0.00,pywws,2013-07-25 14:25:00,
2013-07-25 15:30:00,69.1,68.8,29.80,East,90,0.7,4.5,99,0.00,,,0.00,pywws,2013-07-25 14:30:00,
2013-07-25 15:36:00,70.7,70.1,29.79,NE,45,2.2,3.8,98,0.00,,,0.00,pywws,2013-07-25 14:36:00,
2013-07-25 15:41:00,71.1,68.9,29.79,SE,135,2.2,5.4,93,0.00,,,0.00,pywws,2013-07-25 14:41:00,
2013-07-25 15:46:00,69.6,67.8,29.79,SE,135,3.1,9.2,94,0.00,,,0.00,pywws,2013-07-25 14:46:00,
2013-07-25 16:01:00,67.6,67.3,29.80,East,90,3.1,8.3,99,0.00,,,0.00,pywws,2013-07-25 15:01:00,
2013-07-25 16:02:00,66.7,66.4,29.79,NE,45,3.1,5.4,99,0.00,,,0.00,pywws,2013-07-25 15:02:00,
2013-07-25 16:08:00,68.0,67.7,29.79,NE,45,2.2,4.5,99,0.00,,,0.00,pywws,2013-07-25 15:08:00,
2013-07-25 16:13:00,68.2,67.9,29.79,East,90,2.2,5.4,99,0.00,,,0.00,pywws,2013-07-25 15:13:00,
2013-07-25 16:18:00,67.5,67.2,29.80,South,180,0.7,2.2,99,0.00,,,0.00,pywws,2013-07-25 15:18:00,
2013-07-25 16:24:00,66.0,65.7,29.80,SSW,202,2.2,4.5,99,0.00,,,0.00,pywws,2013-07-25 15:24:00,
2013-07-25 16:29:00,65.3,65.0,29.80,SE,135,0.7,3.8,99,0.00,,,0.00,pywws,2013-07-25 15:29:00,
2013-07-25 16:34:00,65.3,65.0,29.80,SE,135,0.7,3.1,99,0.00,,,0.00,pywws,2013-07-25 15:34:00,
2013-07-25 16:40:00,65.5,65.2,29.80,SE,135,0.7,3.8,99,0.00,,,0.00,pywws,2013-07-25 15:40:00,
2013-07-25 16:45:00,65.1,64.8,29.80,East,90,0.7,3.1,99,0.00,,,0.00,pywws,2013-07-25 15:45:00,
2013-07-25 16:50:00,64.9,64.7,29.81,SE,135,1.6,3.8,99,0.00,,,0.00,pywws,2013-07-25 15:50:00,
2013-07-25 17:01:00,64.0,63.8,29.81,SE,135,2.2,5.4,99,0.00,,,0.00,pywws,2013-07-25 16:01:00,
2013-07-25 17:06:00,63.7,63.4,29.82,SE,135,0.0,1.6,99,0.00,,,0.00,pywws,2013-07-25 16:06:00,
2013-07-25 17:12:00,63.7,63.4,29.81,South,180,2.2,4.5,99,0.00,,,0.00,pywws,2013-07-25 16:12:00,
2013-07-25 17:17:00,63.5,63.2,29.81,SE,135,1.6,3.8,99,0.00,,,0.00,pywws,2013-07-25 16:17:00,
2013-07-25 17:22:00,63.7,63.4,29.81,South,180,2.2,4.5,99,0.00,,,0.00,pywws,2013-07-25 16:22:00,
2013-07-25 17:28:00,63.3,63.0,29.81,South,180,2.2,6.0,99,0.00,,,0.00,pywws,2013-07-25 16:28:00,
2013-07-25 17:33:00,63.3,63.0,29.82,South,180,1.6,3.8,99,0.00,,,0.00,pywws,2013-07-25 16:33:00,
2013-07-25 17:38:00,63.3,63.0,29.82,SE,135,0.7,2.2,99,0.00,,,0.00,pywws,2013-07-25 16:38:00,
2013-07-25 17:44:00,63.3,63.0,29.81,East,90,1.6,3.1,99,0.00,,,0.00,pywws,2013-07-25 16:44:00,
2013-07-25 17:49:00,63.3,63.0,29.81,NE,45,1.6,3.8,99,0.00,,,0.00,pywws,2013-07-25 16:49:00,
2013-07-25 18:00:00,63.1,62.9,29.81,SW,225,0.7,1.6,99,0.00,,,0.00,pywws,2013-07-25 17:00:00,
2013-07-25 18:05:00,62.6,62.3,29.82,East,90,1.6,3.8,99,0.00,,,0.00,pywws,2013-07-25 17:05:00,
2013-07-25 18:10:00,62.8,62.5,29.81,East,90,1.6,3.8,99,0.00,,,0.00,pywws,2013-07-25 17:10:00,
2013-07-25 18:16:00,62.6,62.3,29.81,SE,135,1.6,3.1,99,0.00,,,0.00,pywws,2013-07-25 17:16:00,
2013-07-25 18:21:00,62.8,62.5,29.82,East,90,1.6,3.8,99,0.00,,,0.00,pywws,2013-07-25 17:21:00,
2013-07-25 18:26:00,62.8,62.5,29.81,East,90,1.6,2.2,99,0.00,,,0.00,pywws,2013-07-25 17:26:00,
2013-07-25 18:32:00,63.0,62.7,29.81,NW,315,0.7,3.1,99,0.00,,,0.00,pywws,2013-07-25 17:32:00,
2013-07-25 18:37:00,63.0,62.7,29.82,SE,135,1.6,3.1,99,0.00,,,0.00,pywws,2013-07-25 17:37:00,
2013-07-25 18:42:00,63.0,62.7,29.83,West,270,0.7,2.2,99,0.00,,,0.00,pywws,2013-07-25 17:42:00,
2013-07-25 18:48:00,63.0,62.7,29.83,ESE,112,2.2,4.5,99,0.00,,,0.00,pywws,2013-07-25 17:48:00,
2013-07-25 18:53:00,63.0,62.7,29.83,South,180,1.6,3.8,99,0.00,,,0.00,pywws,2013-07-25 17:53:00,
2013-07-25 18:58:00,62.8,62.5,29.83,SW,225,0.7,1.6,99,0.00,,,0.00,pywws,2013-07-25 17:58:00,
2013-07-25 19:04:00,63.0,62.7,29.83,SW,225,0.0,1.6,99,0.00,,,0.00,pywws,2013-07-25 18:04:00,
2013-07-25 19:09:00,63.1,62.9,29.82,East,90,0.0,0.7,99,0.00,,,0.00,pywws,2013-07-25 18:09:00,
2013-07-25 19:14:00,63.1,62.9,29.82,East,90,0.7,1.6,99,0.00,,,0.00,pywws,2013-07-25 18:14:00,
2013-07-25 19:20:00,63.3,63.0,29.82,East,90,0.7,2.2,99,0.00,,,0.00,pywws,2013-07-25 18:20:00,
2013-07-25 19:25:00,63.3,63.0,29.82,SE,135,0.0,1.6,99,0.00,,,0.00,pywws,2013-07-25 18:25:00,
2013-07-25 19:30:00,63.1,62.9,29.81,SE,135,0.0,0.0,99,0.00,,,0.00,pywws,2013-07-25 18:30:00,
2013-07-25 19:36:00,63.5,63.2,29.81,SE,135,0.0,0.7,99,0.00,,,0.00,pywws,2013-07-25 18:36:00,
2013-07-25 19:41:00,63.5,63.2,29.82,SE,135,0.0,0.0,99,0.00,,,0.00,pywws,2013-07-25 18:41:00,
2013-07-25 19:46:00,63.3,63.0,29.82,SE,135,0.7,2.2,99,0.00,,,0.00,pywws,2013-07-25 18:46:00,
2013-07-25 19:52:00,63.3,63.0,29.83,NE,45,0.0,1.6,99,0.00,,,0.00,pywws,2013-07-25 18:52:00,
2013-07-25 20:02:00,63.1,62.9,29.82,SE,135,1.6,3.1,99,0.00,,,0.00,pywws,2013-07-25 19:02:00,
2013-07-25 20:04:00,63.3,63.0,29.82,SE,135,2.2,3.8,99,0.00,,,0.00,pywws,2013-07-25 19:04:00,
2013-07-25 20:08:00,63.0,62.7,29.82,SE,135,0.7,1.6,99,0.00,,,0.00,pywws,2013-07-25 19:08:00,
2013-07-25 20:13:00,62.8,62.5,29.82,SE,135,0.7,1.6,99,0.00,,,0.00,pywws,2013-07-25 19:13:00,
2013-07-25 20:18:00,62.8,62.5,29.83,ENE,68,0.7,3.1,99,0.00,,,0.00,pywws,2013-07-25 19:18:00,
2013-07-25 20:24:00,62.8,62.5,29.83,NE,45,0.7,1.6,99,0.00,,,0.00,pywws,2013-07-25 19:24:00,
2013-07-25 20:29:00,62.6,62.3,29.83,SE,135,0.0,1.6,99,0.00,,,0.00,pywws,2013-07-25 19:29:00,
2013-07-25 20:34:00,62.4,62.1,29.83,SE,135,0.0,0.0,99,0.00,,,0.00,pywws,2013-07-25 19:34:00,
2013-07-25 20:40:00,62.4,62.1,29.83,SE,135,0.0,0.0,99,0.00,,,0.00,pywws,2013-07-25 19:40:00,
2013-07-25 20:45:00,62.4,62.1,29.83,SE,135,0.0,0.7,99,0.00,,,0.00,pywws,2013-07-25 19:45:00,
2013-07-25 20:50:00,62.4,62.1,29.83,West,270,0.0,0.0,99,0.00,,,0.00,pywws,2013-07-25 19:50:00,
2013-07-25 21:01:00,62.4,62.1,29.82,North,0,0.0,0.0,99,0.00,,,0.00,pywws,2013-07-25 20:01:00,
2013-07-25 21:03:00,62.4,62.1,29.82,North,0,0.0,0.0,99,0.00,,,0.00,pywws,2013-07-25 20:03:00,
2013-07-25 21:06:00,62.4,62.1,29.82,North,0,0.0,0.0,99,0.00,,,0.00,pywws,2013-07-25 20:06:00,
2013-07-25 21:12:00,62.1,61.8,29.82,North,0,0.0,0.0,99,0.00,,,0.00,pywws,2013-07-25 20:12:00,
2013-07-25 21:17:00,61.9,61.6,29.82,North,0,0.0,0.7,99,0.00,,,0.00,pywws,2013-07-25 20:17:00,
2013-07-25 21:22:00,61.9,61.6,29.83,North,0,0.0,0.7,99,0.00,,,0.00,pywws,2013-07-25 20:22:00,
2013-07-25 21:28:00,61.7,61.4,29.82,North,0,0.0,0.0,99,0.00,,,0.00,pywws,2013-07-25 20:28:00,
2013-07-25 21:33:00,61.5,61.2,29.83,North,0,0.0,0.0,99,0.00,,,0.00,pywws,2013-07-25 20:33:00,
2013-07-25 21:38:00,61.5,61.2,29.83,North,0,0.0,1.6,99,0.00,,,0.00,pywws,2013-07-25 20:38:00,
2013-07-25 21:44:00,61.5,61.2,29.83,NW,315,0.0,0.7,99,0.00,,,0.00,pywws,2013-07-25 20:44:00,
2013-07-25 21:49:00,61.5,61.2,29.83,NW,315,0.7,1.6,99,0.00,,,0.00,pywws,2013-07-25 20:49:00,
2013-07-25 22:02:00,61.5,61.2,29.83,NW,315,0.0,0.7,99,0.00,,,0.00,pywws,2013-07-25 21:02:00,
2013-07-25 22:05:00,61.5,61.2,29.83,SE,135,0.0,1.6,99,0.00,,,0.00,pywws,2013-07-25 21:05:00,
2013-07-25 22:10:00,61.7,61.4,29.83,SE,135,0.0,0.0,99,0.00,,,0.00,pywws,2013-07-25 21:10:00,
2013-07-25 22:16:00,61.5,61.2,29.83,SE,135,0.7,1.6,99,0.00,,,0.00,pywws,2013-07-25 21:16:00,
2013-07-25 22:21:00,61.5,61.2,29.83,NW,315,0.0,0.7,99,0.00,,,0.00,pywws,2013-07-25 21:21:00,
2013-07-25 22:26:00,61.2,60.9,29.83,NW,315,0.0,0.0,99,0.00,,,0.00,pywws,2013-07-25 21:26:00,
2013-07-25 22:32:00,60.8,60.5,29.83,NW,315,0.0,0.0,99,0.00,,,0.00,pywws,2013-07-25 21:32:00,
2013-07-25 22:37:00,60.6,60.3,29.83,SE,135,0.0,0.0,99,0.00,,,0.00,pywws,2013-07-25 21:37:00,
2013-07-25 22:42:00,60.4,60.2,29.83,SE,135,0.0,0.0,99,0.00,,,0.00,pywws,2013-07-25 21:42:00,
2013-07-25 22:48:00,60.4,60.2,29.83,SE,135,0.0,0.0,99,0.00,,,0.00,pywws,2013-07-25 21:48:00,
2013-07-25 23:01:00,60.4,60.2,29.83,SE,135,0.0,0.0,99,0.00,,,0.00,pywws,2013-07-25 22:01:00,
2013-07-25 23:04:00,60.3,60.0,29.83,SE,135,0.0,0.0,99,0.00,,,0.00,pywws,2013-07-25 22:04:00,
2013-07-25 23:09:00,60.1,59.8,29.83,SE,135,0.0,0.0,99,0.00,,,0.00,pywws,2013-07-25 22:09:00,
2013-07-25 23:14:00,60.1,59.8,29.83,SE,135,0.0,0.0,99,0.00,,,0.00,pywws,2013-07-25 22:14:00,
2013-07-25 23:20:00,59.9,59.6,29.83,SE,135,0.0,0.0,99,0.00,,,0.00,pywws,2013-07-25 22:20:00,
2013-07-25 23:25:00,59.5,59.3,29.84,SE,135,0.0,0.0,99,0.00,,,0.00,pywws,2013-07-25 22:25:00,
2013-07-25 23:30:00,59.5,59.3,29.83,SE,135,0.0,0.0,99,0.00,,,0.00,pywws,2013-07-25 22:30:00,
2013-07-25 23:36:00,59.5,59.3,29.84,SE,135,0.0,0.0,99,0.00,,,0.00,pywws,2013-07-25 22:36:00,
2013-07-25 23:41:00,59.5,59.3,29.84,SE,135,0.0,0.0,99,0.00,,,0.00,pywws,2013-07-25 22:41:00,
2013-07-25 23:46:00,59.4,59.1,29.84,SE,135,0.0,0.0,99,0.00,,,0.00,pywws,2013-07-25 22:46:00,